Weather History for Grand Marais, MN

Change the Weather History Date:

Saturday, January 11, 2014

  Actual Average (KCKC) Record (KCKC)
Temperature  
Mean Temperature 28 °F -  
Max Temperature 32 °F 13 °F 33 °F (2002)
Min Temperature 25 °F 0 °F -25 °F (1999)
Degree Days  
Heating Degree Days 36    
Moisture  
Dew Point 23 °F    
Average Humidity 79    
Maximum Humidity 89    
Minimum Humidity 72    
Precipitation  
Precipitation 0.00 in - - ()
Sea Level Pressure  
Sea Level Pressure 29.47 in    
Wind  
Wind Speed 3 mph (West)    
Max Wind Speed 8 mph    
Max Gust Speed 17 mph    
Averages and records for this station are not official NWS values.
T = Trace of Precipitation, MM = Missing Value Source: NWS Daily Summary

Daily Weather History Graph

Daily Weather History Graph

Search for Another Location

Airport:

Trip Planner

Search our weather history database for the weather conditions in past years. The results will help you decide how hot, cold, wet, or windy it might be!

Date:

Astronomy

Jan. 11, 2014 Rise Set
Actual Time 7:47 AM CST 4:31 PM CST
Civil Twilight 7:12 AM CST 5:06 PM CST
Nautical Twilight 6:33 AM CST 5:45 PM CST
Astronomical Twilight 5:56 AM CST 6:22 PM CST
Moon 1:18 PM CST (1/11) 3:48 AM CST (1/11)
Length of Visible Light 9h 54m
Length of Day
8h 43m
Waxing Gibbous, 83% of the Moon is Illuminated
Jan 11
Waxing Gibbous
Jan 15
Full
Jan 23
Last Quarter
Jan 30
New
Feb 6
First Quarter

Hourly Weather History & Observations

Time (CST) Temp. Windchill Dew Point Humidity Pressure Visibility Wind Dir Wind Speed Gust Speed Precip Events Conditions
12:56 AM 28.9 °F - 26.1 °F 89% 29.47 in - Calm Calm - N/A   Unknown
1:56 AM 28.9 °F - 25.0 °F 85% 29.45 in - Calm Calm - N/A   Unknown
2:56 AM 28.9 °F - 25.0 °F 85% 29.44 in - Calm Calm - N/A   Unknown
3:56 AM 28.9 °F - 24.1 °F 82% 29.44 in - Calm Calm - N/A   Unknown
4:56 AM 28.9 °F 25.2 °F 24.1 °F 82% 29.43 in - West 3.5 mph - N/A   Unknown
5:56 AM 28.9 °F - 24.1 °F 82% 29.42 in - Calm Calm - N/A   Unknown
6:56 AM 28.9 °F 23.9 °F 24.1 °F 82% 29.42 in - West 4.6 mph - N/A   Unknown
7:56 AM 28.9 °F 23.9 °F 25.0 °F 85% 29.42 in - West 4.6 mph - N/A   Unknown
8:56 AM 30.0 °F 24.1 °F 25.0 °F 82% 29.44 in - WSW 5.8 mph - N/A   Unknown
9:56 AM 30.0 °F 26.5 °F 25.0 °F 82% 29.43 in - West 3.5 mph - N/A   Unknown
10:56 AM 32.0 °F 26.4 °F 25.0 °F 75% 29.42 in - West 5.8 mph - N/A   Unknown
11:56 AM 32.0 °F 24.8 °F 26.1 °F 79% 29.41 in - SW 8.1 mph - N/A   Unknown
12:56 PM 32.0 °F 26.4 °F 25.0 °F 75% 29.40 in - Variable 5.8 mph - N/A   Unknown
1:56 PM 32.0 °F 25.6 °F 25.0 °F 75% 29.42 in - Variable 6.9 mph - N/A   Unknown
2:56 PM 32.0 °F 28.7 °F 24.1 °F 73% 29.44 in - Variable 3.5 mph - N/A   Unknown
3:56 PM 30.9 °F 26.2 °F 24.1 °F 76% 29.47 in - Variable 4.6 mph - N/A   Unknown
4:56 PM 30.0 °F 22.4 °F 23.0 °F 75% 29.51 in - WNW 8.1 mph - N/A   Unknown
5:56 PM 28.0 °F 21.7 °F 19.9 °F 72% 29.52 in - Variable 5.8 mph 17.3 mph N/A   Unknown
6:56 PM 28.0 °F 20.8 °F 21.9 °F 78% 29.54 in - WSW 6.9 mph 16.1 mph N/A   Unknown
7:56 PM 27.0 °F 19.5 °F 19.9 °F 75% 29.54 in - West 6.9 mph - N/A   Unknown
8:56 PM 26.1 °F 19.4 °F 19.9 °F 78% 29.53 in - Variable 5.8 mph - N/A   Unknown
9:56 PM 26.1 °F 18.4 °F 19.0 °F 75% 29.56 in - West 6.9 mph - N/A   Unknown
10:56 PM 25.0 °F 18.1 °F 19.0 °F 78% 29.57 in - West 5.8 mph - N/A   Unknown
11:56 PM 25.0 °F 17.1 °F 18.0 °F 75% 29.57 in - WSW 6.9 mph - N/A   Unknown